Date String (YYYY-MM-DD hh:mm:ss) UTC,Instrument flags,Ambient pressure (hPa),Sample flow (lpm),Bypass flow (lpm),Sample temperature (°C),Ambient temperature (°C),ASC tube jacket temperature (°C),LED temperature (°C),Box temperature (°C),Sample RH (%),Span deviation,Mass concentration (μg/m³),Mass concentration (μg/m³),Mass concentration (μg/m³)
DateTimeUTC,F1_M11,P_M11,Q1_M11,Q2_M11,T1_M11,T2_M11,T3_M11,T4_M11,T5_M11,U1_M11,ZSPAN_M11,X0_M11,X2_M11,X1_M11
2022-03-19 05:00:00,,0826.5,5.00,0.00,24.1,23.1,00.0,33.0,25.8,06.9,0000.0,0007.31,0003.49,0002.27
2022-03-19 05:01:00,,0826.4,5.01,0.00,24.0,23.1,00.0,33.0,25.7,07.4,0000.0,0007.34,0003.48,0002.27
2022-03-19 05:02:00,,0826.4,5.00,0.00,24.0,23.0,00.0,33.0,25.7,06.9,0000.0,0007.18,0003.46,0002.28
2022-03-19 05:03:00,,0826.4,4.99,0.00,24.0,23.0,00.0,33.0,25.7,06.9,0000.0,0007.07,0003.44,0002.27
2022-03-19 05:04:00,,0826.4,4.99,0.00,24.0,23.0,00.0,33.0,25.8,07.0,0000.0,0006.98,0003.46,0002.28
2022-03-19 05:05:00,,0826.3,5.00,0.00,24.0,23.0,00.0,33.0,25.7,07.1,0000.0,0006.77,0003.47,0002.31
2022-03-19 05:06:00,,0826.4,4.99,0.00,24.0,23.0,00.0,33.0,25.7,07.1,0000.0,0006.60,0003.47,0002.32
2022-03-19 05:07:00,,0826.5,5.00,0.00,24.0,23.0,00.0,33.0,25.8,07.1,0000.0,0006.64,0003.46,0002.31
2022-03-19 05:08:00,,0826.5,5.02,0.00,24.0,23.0,00.0,33.0,25.9,07.1,0000.0,0006.68,0003.44,0002.26
2022-03-19 05:09:00,,0826.5,4.99,0.00,24.0,23.0,00.0,33.0,25.8,07.1,0000.0,0006.62,0003.44,0002.23
2022-03-19 05:10:00,,0826.5,5.00,0.00,24.0,23.0,00.0,33.0,25.7,07.0,0000.0,0006.59,0003.43,0002.23
2022-03-19 05:11:00,,0826.5,5.01,0.00,24.0,23.0,00.0,33.0,25.7,07.0,0000.0,0006.49,0003.41,0002.23
2022-03-19 05:12:00,,0826.5,4.99,0.00,24.0,23.0,00.0,33.0,25.7,07.0,0000.0,0006.45,0003.42,0002.25
2022-03-19 05:13:00,,0826.5,5.00,0.00,24.0,23.1,00.0,33.0,25.8,06.9,0000.0,0006.76,0003.47,0002.28
2022-03-19 05:14:00,,0826.5,5.00,0.00,24.0,23.1,00.0,33.0,25.8,07.0,0000.0,0007.44,0003.49,0002.32
2022-03-19 05:15:00,,0826.5,5.01,0.00,24.0,23.1,00.0,33.0,25.8,07.0,0000.0,0007.39,0003.45,0002.33
2022-03-19 05:16:00,,0826.5,4.99,0.00,24.0,23.1,00.0,33.0,25.8,07.0,0000.0,0007.28,0003.40,0002.31
2022-03-19 05:17:00,,0826.4,5.00,0.00,24.0,23.1,00.0,33.0,25.7,07.0,0000.0,0007.30,0003.39,0002.30
2022-03-19 05:18:00,,0826.3,5.00,0.00,24.0,23.1,00.0,33.0,25.8,07.0,0000.0,0007.01,0003.36,0002.29
2022-03-19 05:19:00,,0826.4,5.01,0.00,24.0,23.1,00.0,33.0,25.8,06.9,0000.0,0006.89,0003.33,0002.28
2022-03-19 05:20:00,,0826.5,4.99,0.00,24.0,23.1,00.0,33.0,25.8,07.0,0000.0,0006.90,0003.32,0002.27
2022-03-19 05:21:00,,0826.5,5.00,0.00,24.0,23.0,00.0,33.0,25.8,07.0,0000.0,0006.93,0003.34,0002.32
2022-03-19 05:22:00,,0826.5,5.01,0.00,24.0,23.1,00.0,33.0,25.8,07.3,0000.0,0006.90,0003.34,0002.34
2022-03-19 05:23:00,,0826.5,5.01,0.00,24.0,23.0,00.0,33.0,25.8,07.4,0000.0,0007.38,0003.40,0002.38
2022-03-19 05:24:00,,0826.5,5.00,0.00,24.0,23.1,00.0,33.0,25.8,07.3,0000.0,0008.15,0003.39,0002.39
2022-03-19 05:25:00,,0826.5,5.01,0.00,24.0,23.1,00.0,33.0,25.8,07.2,0000.0,0007.75,0003.36,0002.36
2022-03-19 05:26:00,,0826.5,5.00,0.00,24.0,23.1,00.0,33.0,25.8,07.1,0000.0,0007.70,0003.34,0002.35
2022-03-19 05:27:00,,0826.5,5.01,0.00,24.0,23.1,00.0,33.0,25.8,07.2,0000.0,0007.75,0003.33,0002.33
2022-03-19 05:28:00,,0826.5,5.01,0.00,24.0,23.1,00.0,33.0,25.7,07.3,0000.0,0007.65,0003.30,0002.31
2022-03-19 05:29:00,,0826.5,5.00,0.00,24.0,23.1,00.0,33.0,25.7,07.4,0000.0,0007.60,0003.29,0002.29
2022-03-19 05:30:00,,0826.5,5.02,0.00,24.0,23.1,00.0,33.0,25.7,07.1,0000.0,0007.58,0003.29,0002.31
2022-03-19 05:31:00,,0826.5,4.99,0.00,24.0,23.1,00.0,33.0,25.7,07.0,0000.0,0007.61,0003.32,0002.35
2022-03-19 05:32:00,,0826.4,5.00,0.00,24.0,23.1,00.0,33.0,25.8,07.0,0000.0,0007.57,0003.29,0002.31
2022-03-19 05:33:00,,0826.4,5.00,0.00,24.0,23.0,00.0,33.0,25.7,07.0,0000.0,0007.58,0003.29,0002.29
2022-03-19 05:34:00,,0826.5,4.99,0.00,24.0,23.0,00.0,33.0,25.8,07.0,0000.0,0007.97,0003.23,0002.27
2022-03-19 05:35:00,,0826.5,4.99,0.00,24.0,23.0,00.0,33.0,25.7,07.1,0000.0,0007.35,0003.24,0002.24
2022-03-19 05:36:00,,0826.4,5.02,0.00,24.0,23.0,00.0,33.0,25.7,07.1,0000.0,0007.12,0003.21,0002.20
2022-03-19 05:37:00,,0826.4,5.00,0.00,24.0,23.0,00.0,33.0,25.7,07.1,0000.0,0007.20,0003.20,0002.15
2022-03-19 05:38:00,,0826.4,4.99,0.00,24.0,23.0,00.0,33.0,25.6,07.0,0000.0,0007.13,0003.20,0002.12
2022-03-19 05:39:00,,0826.4,5.01,0.00,24.0,23.0,00.0,33.0,25.7,07.0,0000.0,0007.31,0003.21,0002.08
2022-03-19 05:40:00,,0826.4,5.00,0.00,23.9,23.0,00.0,32.9,25.7,06.9,0000.0,0007.39,0003.19,0002.02
2022-03-19 05:41:00,,0826.4,5.00,0.00,23.9,22.9,00.0,32.9,25.6,07.0,0000.0,0007.44,0003.18,0001.97
2022-03-19 05:42:00,,0826.4,4.99,0.00,23.9,22.9,00.0,32.9,25.6,07.2,0000.0,0007.40,0003.17,0001.92
2022-03-19 05:43:00,,0826.4,5.01,0.00,23.9,22.9,00.0,32.9,25.6,07.3,0000.0,0007.76,0003.19,0001.90
2022-03-19 05:44:00,,0826.4,5.01,0.00,23.9,23.0,00.0,32.9,25.7,07.4,0000.0,0008.19,0003.21,0001.87
2022-03-19 05:45:00,,0826.4,5.00,0.00,23.9,23.0,00.0,32.9,25.7,07.3,0000.0,0007.81,0003.20,0001.83
2022-03-19 05:46:00,,0826.4,4.99,0.00,23.9,23.0,00.0,32.9,25.7,07.2,0000.0,0007.47,0003.15,0001.79
2022-03-19 05:47:00,,0826.4,5.01,0.00,23.9,23.0,00.0,32.9,25.6,07.0,0000.0,0007.47,0003.16,0001.79
2022-03-19 05:48:00,,0826.4,5.00,0.00,23.9,23.0,00.0,32.9,25.6,07.0,0000.0,0007.37,0003.14,0001.81
2022-03-19 05:49:00,,0826.4,5.00,0.00,23.9,23.0,00.0,32.9,25.7,07.1,0000.0,0007.34,0003.12,0001.81
2022-03-19 05:50:00,,0826.4,4.99,0.00,23.9,23.0,00.0,32.9,25.7,07.0,0000.0,0007.15,0003.07,0001.80
2022-03-19 05:51:00,,0826.4,5.01,0.00,23.9,23.0,00.0,32.9,25.6,07.0,0000.0,0006.97,0003.01,0001.81
2022-03-19 05:52:00,,0826.4,5.00,0.00,23.9,23.0,00.0,32.9,25.7,07.0,0000.0,0006.93,0003.00,0001.81
2022-03-19 05:53:00,,0826.4,5.01,0.00,23.9,23.0,00.0,32.9,25.6,07.0,0000.0,0007.06,0003.00,0001.82
2022-03-19 05:54:00,,0826.3,4.99,0.00,23.9,23.0,00.0,32.9,25.6,07.1,0000.0,0006.69,0002.95,0001.80
2022-03-19 05:55:00,,0826.4,5.00,0.00,23.9,22.9,00.0,32.9,25.6,07.4,0000.0,0005.44,0002.81,0001.75
2022-03-19 05:56:00,,0826.4,5.01,0.00,23.9,22.9,00.0,32.9,25.6,07.4,0000.0,0004.97,0002.68,0001.71
2022-03-19 05:57:00,,0826.5,5.00,0.00,23.9,22.9,00.0,32.9,25.6,07.1,0000.0,0004.75,0002.62,0001.66
2022-03-19 05:58:00,,0826.4,4.98,0.00,23.8,22.8,00.0,32.9,25.5,07.0,0000.0,0004.58,0002.55,0001.61
2022-03-19 05:59:00,,0826.3,4.99,0.00,23.8,22.7,00.0,32.9,25.5,07.1,0000.0,0004.44,0002.44,0001.54
